2018-099U (43776 NORAD) Tracking and Keplerian Element Data

This shows tracking and keplerian element data for the satellite.

Feedback or suggestion? Click here.




ElementValue
Catalog43776
Name2018-099U
Epoch Orbit94
Epoch Day344.1774691
Epoch Year2018
RAAN53.2754
Inclination97.7694
Eccentricity0.0013496
Argument of Perigee237.601
Mean Anonmoly122.3905
Mean Motion14.94842761
Decay Rate-2.91E-06
L11 43776U 18099U 18344.17746910 -.00000291 00000-0 -21367-4 0 9996
L22 43776 97.7694 53.2754 0013496 237.6010 122.3905 14.94842761 940

Live tracking and technical data element details for 2018-099U (NORAD 43776). 2018-099U can be tracked NOW for your location showing map with azimuth and elevation plus other details from your city location.

Track the satellite on the map from your city or location and see movement details for azimuth, elevation, latitude, longitude, range, height, and movement on the map or in text.







IsCatalogInMostPopularTable: catalog: 43776, numindb: 1
Update: records affected: 1



GetName: 43776 2018-099U

Hit Count: updated at: Tue, 11 Dec 2018 03:24:06 GMT